Overview Statistics Trail Chart Weather Telemetry Raw packets
 

This is the latest recevied weather packets stored in our database for station/object KI5RAB. If no packets are shown the sender has not sent any weather packets the latest 10 day(s).

<< 27 28 29 30 31 32 33 >>
Time Temp. Humidity Pressure Rain* Wind** Luminosity Snow
1788479538 35.56° C 47% 1013.1 hPa 0 mm - 54 W/m² -
1788479231 35.56° C 46% 1013 hPa 0 mm - 75 W/m² -
1788478928 35.56° C 46% 1012.9 hPa 0 mm - 88 W/m² -
1788478624 36.11° C 46% 1013 hPa 0 mm - 88 W/m² -
1788478320 36.11° C 45% 1012.8 hPa 0 mm - 91 W/m² -
1788478014 36.11° C 46% 1012.8 hPa 0 mm - 97 W/m² -
1788477710 36.67° C 44% 1012.6 hPa 0 mm - 117 W/m² -
1788477408 36.67° C 45% 1012.6 hPa 0 mm - 139 W/m² -
1788477103 36.67° C 44% 1012.8 hPa 0 mm - 135 W/m² -
1788476799 37.22° C 42% 1012.8 hPa 0 mm - 169 W/m² -
1788476498 37.22° C 41% 1012.6 hPa 0 mm - 171 W/m² -
1788476195 37.22° C 41% 1012.5 hPa 0 mm - 186 W/m² -
1788475886 37.78° C 41% 1012.7 hPa 0 mm - 201 W/m² -
1788475581 37.22° C 40% 1012.5 hPa 0 mm - 214 W/m² -
1788475278 37.78° C 41% 1012.5 hPa 0 mm - 224 W/m² -
1788474988 37.78° C 41% 1012.7 hPa 0 mm - 241 W/m² -
1788474671 37.22° C 42% 1012.7 hPa 0 mm - 259 W/m² -
1788474366 37.78° C 42% 1012.6 hPa 0 mm - 253 W/m² -
1788474065 37.78° C 42% 1012.6 hPa 0 mm - 262 W/m² -
1788473761 37.78° C 42% 1012.7 hPa 0 mm - 313 W/m² -
1788473458 38.33° C 42% 1012.8 hPa 0 mm - 351 W/m² -
1788473157 37.78° C 42% 1012.7 hPa 0 mm - 362 W/m² -
1788472857 38.33° C 41% 1012.6 hPa 0 mm - 361 W/m² -
1788472555 37.78° C 44% 1012.9 hPa 0 mm - 377 W/m² -
1788472250 37.78° C 43% 1012.7 hPa 0 mm - 344 W/m² -

* Rain latest hour (hover to see other rain measurements)
** Current wind speed in m/s (hover to see current wind gust speed)